STARLINK-1240 (45194 NORAD) Tracking and Keplerian Element Data

This shows tracking and keplerian element data for the satellite.

Feedback or suggestion? Click here.




ElementValue
Catalog45194
NameSTARLINK-1240
Epoch Orbit2290
Epoch Day197.25001157
Epoch Year2020
RAAN309.7567
Inclination52.9994
Eccentricity0.0001496
Argument of Perigee124.169
Mean Anonmoly53.6082
Mean Motion15.05595607
Decay Rate0.00030406
L11 45194U 20012S 20197.25001157 .00030406 00000-0 20961-2 0 9991
L22 45194 52.9994 309.7567 0001496 124.1690 53.6082 15.05595607 22903

Live tracking and technical data element details for STARLINK-1240 (NORAD 45194). STARLINK-1240 can be tracked NOW for your location showing map with azimuth and elevation plus other details from your city location.

Track the satellite on the map from your city or location and see movement details for azimuth, elevation, latitude, longitude, range, height, and movement on the map or in text.







IsCatalogInMostPopularTable: catalog: 45194, numindb: 26
Update: records affected: 1



GetName: 45194 STARLINK-1240

Hit Count: updated at: Thu, 16 Jul 2020 03:46:08 GMT